Flag for Haiti Weather past 2 weeks in Cap-Haïtien, Haiti

Now
68 °F

Passing clouds.


Feels Like: 68 °F
Forecast: 74 / 84 °F
Wind: No wind

Location: Santiago

Current Time: Mar 3, 2015 at 11:47:26 PM

Latest Report: Mar 3, 2015 at 11:00 PM


Visibility: N/A

Pressure: 30.09 "Hg

Humidity: 100%

Dew point: 68 °F

Location of Cap-HaïtienLocation

Historic Weather in Cap-Haïtien — Graph

°F

Cap-Haïtien temperature yesterday

Maximum temperature yesterday: 79 °F (at 10:00 AM)
Minimum temperature yesterday: 66 °F (at 6:00 AM)
Average temperature yesterday: 72 °F

Past Weeks' High & Low Weather Summary

 TemperatureHumidityPressure
High88 °F (Feb 18, 1:00 PM)100% (Feb 17, 4:00 AM)30.21 "Hg (Feb 17, 4:00 AM)
Low64 °F (Feb 17, 4:00 AM)48% (Mar 1, 3:00 PM)29.89 "Hg (Mar 1, 8:00 PM)
Average75 °F83%30.05 "Hg
* Reported Feb 16 10:00 PM — Mar 3 10:00 PM, Cap-Haïtien, Weather by CustomWeather, © 2015

Note: Actual official high and low records may vary slightly from our data, if they occured in-between our weather recording intervals... More about our weather records

Advertising

Cap-Haïtien weather history for previous 24 hours

 ConditionsComfort  
Time TempWeatherWind HumidityBarometerVisibility
10:00 PM
Tue, Mar 3
70 °FPassing clouds.No wind94%30.09 "HgN/A
9:00 PM70 °FPassing clouds.No wind94%30.09 "HgN/A
8:00 PM70 °FPassing clouds.7 mph94%30.09 "HgN/A
7:00 PM73 °FPassing clouds.12 mph89%30.07 "HgN/A
6:00 PM75 °FPassing clouds.5 mph83%30.04 "HgN/A
5:00 PM77 °FScattered clouds.No wind79%30.01 "HgN/A
4:00 PM75 °FLight rain. Partly sunny.No wind83%30.01 "Hg5 mi
3:00 PM75 °FScattered showers. Partly sunny.7 mph89%30.04 "Hg5 mi
2:00 PM73 °FRain. Overcast.9 mph94%30.07 "Hg4 mi
1:00 PM70 °FScattered showers. Partly sunny.5 mph94%30.09 "Hg5 mi
12:00 PM77 °FScattered showers. Partly sunny.7 mph79%30.09 "Hg5 mi
11:00 AM79 °FLight rain. Partly sunny.9 mph70%30.09 "Hg4 mi
10:00 AM77 °FScattered showers. Scattered clouds.7 mph79%30.12 "Hg5 mi
9:00 AM77 °FScattered clouds.No wind79%30.12 "HgN/A
8:00 AM73 °FScattered clouds.No wind89%30.09 "HgN/A
7:00 AM66 °FScattered clouds.No wind100%30.09 "Hg4 mi
6:00 AM66 °FPassing clouds.No wind100%30.04 "HgN/A
5:00 AM66 °FPassing clouds.No wind100%30.04 "HgN/A
4:00 AM68 °FPassing clouds.No wind100%30.01 "HgN/A
1:00 AM66 °FPassing clouds.No wind100%30.07 "HgN/A
12:00 AM66 °FPassing clouds.No wind100%30.09 "HgN/A
11:00 PM
Mon, Mar 2
66 °FFog.No wind100%30.09 "Hg0 mi
Weather by CustomWeather, © 2015

See weather overviewHow to use our weather pages